Time,TemperatureF,DewpointF,PressureIn,WindDirection,WindDirectionDegrees,WindSpeedMPH,WindSpeedGustMPH,Humidity,HourlyPrecipIn,Conditions,Clouds,dailyrainin,SoftwareType,DateUTC
2013-09-09 00:01:00,67.3,65.5,29.67,SW,236,0.0,0.0,94,0.00,,,0.00,Wunderground v.1.15,2013-09-09 04:01:00,
2013-09-09 00:02:00,67.3,65.5,29.67,SW,236,0.0,0.0,94,0.00,,,0.00,Wunderground v.1.15,2013-09-09 04:02:00,
2013-09-09 00:03:00,67.3,65.5,29.67,SW,236,0.0,0.0,94,0.00,,,0.00,Wunderground v.1.15,2013-09-09 04:03:00,
2013-09-09 00:04:00,67.3,65.5,29.67,SW,236,0.0,0.0,94,0.00,,,0.00,Wunderground v.1.15,2013-09-09 04:04:00,
2013-09-09 00:09:00,67.2,65.1,29.68,SW,236,0.0,0.0,93,0.00,,,0.00,Wunderground v.1.15,2013-09-09 04:09:00,
2013-09-09 00:15:00,67.2,65.1,29.68,SW,236,0.0,0.0,93,0.00,,,0.00,Wunderground v.1.15,2013-09-09 04:15:00,
2013-09-09 00:17:00,67.2,65.1,29.68,SW,236,0.0,0.0,93,0.00,,,0.00,Wunderground v.1.15,2013-09-09 04:17:00,
2013-09-09 00:22:00,67.1,65.0,29.68,SW,236,0.0,0.0,93,0.00,,,0.00,Wunderground v.1.15,2013-09-09 04:22:00,
2013-09-09 00:27:00,67.1,65.0,29.68,SW,236,0.0,0.0,93,0.00,,,0.00,Wunderground v.1.15,2013-09-09 04:27:00,
2013-09-09 00:30:00,67.0,64.9,29.68,SW,236,0.0,0.0,93,0.00,,,0.00,Wunderground v.1.15,2013-09-09 04:30:00,
2013-09-09 00:36:00,66.8,64.7,29.68,SW,236,0.0,0.0,93,0.00,,,0.00,Wunderground v.1.15,2013-09-09 04:36:00,
2013-09-09 00:41:00,66.8,64.7,29.69,SW,236,0.0,0.0,93,0.00,,,0.00,Wunderground v.1.15,2013-09-09 04:41:00,
2013-09-09 00:48:00,66.7,64.6,29.68,WSW,238,0.0,0.0,93,0.00,,,0.00,Wunderground v.1.15,2013-09-09 04:48:00,
2013-09-09 00:54:00,66.6,64.8,29.69,WSW,238,0.0,0.0,94,0.00,,,0.00,Wunderground v.1.15,2013-09-09 04:54:00,
2013-09-09 00:59:00,66.6,64.5,29.68,WSW,238,0.0,0.0,93,0.00,,,0.00,Wunderground v.1.15,2013-09-09 04:59:00,
2013-09-09 01:05:00,66.5,64.4,29.68,WSW,238,0.0,0.0,93,0.00,,,0.00,Wunderground v.1.15,2013-09-09 05:05:00,
2013-09-09 01:10:00,66.4,64.3,29.68,WSW,238,0.0,0.0,93,0.00,,,0.00,Wunderground v.1.15,2013-09-09 05:10:00,
2013-09-09 01:15:00,66.4,64.3,29.69,WSW,238,0.0,0.0,93,0.00,,,0.00,Wunderground v.1.15,2013-09-09 05:15:00,
2013-09-09 01:21:00,66.3,64.2,29.69,WSW,238,0.0,0.0,93,0.00,,,0.00,Wunderground v.1.15,2013-09-09 05:21:00,
2013-09-09 01:26:00,66.2,64.1,29.69,WSW,238,0.0,0.0,93,0.00,,,0.00,Wunderground v.1.15,2013-09-09 05:26:00,
2013-09-09 01:31:00,66.1,64.0,29.70,WSW,238,0.0,0.0,93,0.00,,,0.00,Wunderground v.1.15,2013-09-09 05:31:00,
2013-09-09 01:37:00,66.1,64.0,29.69,WSW,238,0.0,0.0,93,0.00,,,0.00,Wunderground v.1.15,2013-09-09 05:37:00,
2013-09-09 01:42:00,66.0,64.2,29.69,WSW,238,0.0,0.0,94,0.00,,,0.00,Wunderground v.1.15,2013-09-09 05:42:00,
2013-09-09 01:48:00,66.0,64.2,29.69,WSW,238,0.0,1.0,94,0.00,,,0.00,Wunderground v.1.15,2013-09-09 05:48:00,
2013-09-09 01:54:00,66.0,64.2,29.70,WSW,238,0.0,1.0,94,0.00,,,0.00,Wunderground v.1.15,2013-09-09 05:54:00,
2013-09-09 02:00:00,66.0,64.2,29.70,WSW,238,0.0,0.0,94,0.00,,,0.00,Wunderground v.1.15,2013-09-09 06:00:00,
2013-09-09 02:06:00,66.1,64.3,29.70,WSW,238,0.0,0.0,94,0.00,,,0.00,Wunderground v.1.15,2013-09-09 06:06:00,
2013-09-09 02:11:00,66.1,64.3,29.70,WSW,238,0.0,0.0,94,0.00,,,0.00,Wunderground v.1.15,2013-09-09 06:11:00,
2013-09-09 02:17:00,66.1,64.3,29.70,WSW,238,0.0,0.0,94,0.00,,,0.00,Wunderground v.1.15,2013-09-09 06:17:00,
2013-09-09 02:22:00,66.1,64.3,29.70,WSW,238,0.0,0.0,94,0.00,,,0.00,Wunderground v.1.15,2013-09-09 06:22:00,
2013-09-09 02:27:00,66.1,64.0,29.70,WSW,238,0.0,0.0,93,0.00,,,0.00,Wunderground v.1.15,2013-09-09 06:27:00,
2013-09-09 02:33:00,66.1,64.0,29.70,WSW,238,0.0,0.0,93,0.00,,,0.00,Wunderground v.1.15,2013-09-09 06:33:00,
2013-09-09 02:39:00,66.1,64.0,29.70,WSW,238,0.0,0.0,93,0.00,,,0.00,Wunderground v.1.15,2013-09-09 06:39:00,
2013-09-09 02:45:00,66.2,64.1,29.70,WSW,238,0.0,0.0,93,0.00,,,0.00,Wunderground v.1.15,2013-09-09 06:45:00,
2013-09-09 02:50:00,66.2,64.1,29.71,WSW,238,0.0,0.0,93,0.00,,,0.00,Wunderground v.1.15,2013-09-09 06:50:00,
2013-09-09 02:55:00,66.3,63.9,29.70,WSW,238,0.0,1.0,92,0.00,,,0.00,Wunderground v.1.15,2013-09-09 06:55:00,
2013-09-09 03:00:00,66.5,64.1,29.70,WSW,238,0.0,0.0,92,0.00,,,0.00,Wunderground v.1.15,2013-09-09 07:00:00,
2013-09-09 03:06:00,66.6,64.2,29.70,WSW,238,0.0,0.0,92,0.00,,,0.00,Wunderground v.1.15,2013-09-09 07:06:00,
2013-09-09 03:11:00,66.6,64.2,29.70,WSW,238,0.0,0.0,92,0.00,,,0.00,Wunderground v.1.15,2013-09-09 07:11:00,
2013-09-09 03:16:00,66.7,64.3,29.70,WSW,238,0.0,0.0,92,0.00,,,0.00,Wunderground v.1.15,2013-09-09 07:16:00,
2013-09-09 03:21:00,66.7,64.3,29.70,WSW,238,0.0,0.0,92,0.00,,,0.00,Wunderground v.1.15,2013-09-09 07:21:00,
2013-09-09 03:26:00,66.8,64.1,29.70,WSW,238,0.0,0.0,91,0.00,,,0.00,Wunderground v.1.15,2013-09-09 07:26:00,
2013-09-09 03:32:00,66.8,64.1,29.70,WSW,244,0.0,0.0,91,0.00,,,0.00,Wunderground v.1.15,2013-09-09 07:32:00,
2013-09-09 03:38:00,66.8,64.1,29.70,WSW,244,0.0,0.0,91,0.00,,,0.00,Wunderground v.1.15,2013-09-09 07:38:00,
2013-09-09 03:44:00,66.7,64.0,29.70,WSW,244,0.0,1.0,91,0.00,,,0.00,Wunderground v.1.15,2013-09-09 07:44:00,
2013-09-09 03:49:00,66.6,63.9,29.70,WSW,244,0.0,0.0,91,0.00,,,0.00,Wunderground v.1.15,2013-09-09 07:49:00,
2013-09-09 03:54:00,66.5,63.8,29.70,WSW,244,0.0,0.0,91,0.00,,,0.00,Wunderground v.1.15,2013-09-09 07:54:00,
2013-09-09 03:59:00,66.5,63.8,29.70,WSW,244,0.0,1.0,91,0.00,,,0.00,Wunderground v.1.15,2013-09-09 07:59:00,
2013-09-09 04:05:00,66.4,63.7,29.70,WSW,244,0.0,0.0,91,0.00,,,0.00,Wunderground v.1.15,2013-09-09 08:05:00,
2013-09-09 04:10:00,66.3,63.6,29.70,WSW,244,0.0,0.0,91,0.00,,,0.00,Wunderground v.1.15,2013-09-09 08:10:00,
2013-09-09 04:15:00,66.2,63.5,29.70,WSW,244,0.0,0.0,91,0.00,,,0.00,Wunderground v.1.15,2013-09-09 08:15:00,
2013-09-09 04:20:00,66.1,63.4,29.70,WSW,244,0.0,0.0,91,0.00,,,0.00,Wunderground v.1.15,2013-09-09 08:20:00,
2013-09-09 04:25:00,66.0,63.6,29.71,WSW,244,0.0,0.0,92,0.00,,,0.00,Wunderground v.1.15,2013-09-09 08:25:00,
2013-09-09 04:31:00,66.0,63.6,29.71,WSW,244,0.0,0.0,92,0.00,,,0.00,Wunderground v.1.15,2013-09-09 08:31:00,
2013-09-09 04:36:00,66.0,63.6,29.71,WSW,244,0.0,1.0,92,0.00,,,0.00,Wunderground v.1.15,2013-09-09 08:36:00,
2013-09-09 04:41:00,65.9,63.5,29.71,WSW,247,0.0,0.0,92,0.00,,,0.00,Wunderground v.1.15,2013-09-09 08:41:00,
2013-09-09 04:48:00,65.8,63.4,29.71,WSW,247,0.0,1.0,92,0.00,,,0.00,Wunderground v.1.15,2013-09-09 08:48:00,
2013-09-09 04:54:00,65.7,63.3,29.71,WSW,247,0.0,1.0,92,0.00,,,0.00,Wunderground v.1.15,2013-09-09 08:54:00,
2013-09-09 05:00:00,65.7,63.3,29.71,WSW,247,0.0,1.0,92,0.00,,,0.00,Wunderground v.1.15,2013-09-09 09:00:00,
2013-09-09 05:06:00,65.6,63.2,29.71,WSW,248,0.0,1.0,92,0.00,,,0.00,Wunderground v.1.15,2013-09-09 09:06:00,
2013-09-09 05:11:00,65.6,63.2,29.72,WSW,248,0.0,0.0,92,0.00,,,0.00,Wunderground v.1.15,2013-09-09 09:11:00,
2013-09-09 05:16:00,65.6,63.2,29.72,WSW,248,0.0,0.0,92,0.00,,,0.00,Wunderground v.1.15,2013-09-09 09:16:00,
2013-09-09 05:22:00,65.6,63.2,29.72,WSW,248,0.0,0.0,92,0.00,,,0.00,Wunderground v.1.15,2013-09-09 09:22:00,
2013-09-09 05:27:00,65.6,63.2,29.72,WSW,248,0.0,0.0,92,0.00,,,0.00,Wunderground v.1.15,2013-09-09 09:27:00,
2013-09-09 05:33:00,65.6,63.2,29.73,West,263,0.0,0.0,92,0.00,,,0.00,Wunderground v.1.15,2013-09-09 09:33:00,
2013-09-09 05:38:00,65.6,63.2,29.73,West,263,0.0,0.0,92,0.00,,,0.00,Wunderground v.1.15,2013-09-09 09:38:00,
2013-09-09 05:43:00,65.6,63.2,29.73,West,263,0.0,0.0,92,0.00,,,0.00,Wunderground v.1.15,2013-09-09 09:43:00,
2013-09-09 05:48:00,65.6,63.2,29.73,West,263,0.0,0.0,92,0.00,,,0.00,Wunderground v.1.15,2013-09-09 09:48:00,
2013-09-09 05:54:00,65.6,63.2,29.73,West,263,0.0,0.0,92,0.00,,,0.00,Wunderground v.1.15,2013-09-09 09:54:00,
2013-09-09 05:59:00,65.5,63.1,29.73,West,263,0.0,1.0,92,0.00,,,0.00,Wunderground v.1.15,2013-09-09 09:59:00,
2013-09-09 06:05:00,65.6,63.2,29.73,West,263,0.0,0.0,92,0.00,,,0.00,Wunderground v.1.15,2013-09-09 10:05:00,
2013-09-09 06:10:00,65.5,63.1,29.73,West,263,0.0,0.0,92,0.00,,,0.00,Wunderground v.1.15,2013-09-09 10:10:00,
2013-09-09 06:15:00,65.5,63.1,29.73,West,263,0.0,0.0,92,0.00,,,0.00,Wunderground v.1.15,2013-09-09 10:15:00,
2013-09-09 06:20:00,65.4,63.0,29.73,West,263,0.0,0.0,92,0.00,,,0.00,Wunderground v.1.15,2013-09-09 10:20:00,
2013-09-09 06:25:00,65.3,63.2,29.74,West,263,0.0,0.0,93,0.00,,,0.00,Wunderground v.1.15,2013-09-09 10:25:00,
2013-09-09 06:31:00,65.3,63.2,29.73,West,263,0.0,0.0,93,0.00,,,0.00,Wunderground v.1.15,2013-09-09 10:31:00,
2013-09-09 06:36:00,65.3,63.2,29.74,West,263,0.0,0.0,93,0.00,,,0.00,Wunderground v.1.15,2013-09-09 10:36:00,
2013-09-09 06:41:00,65.3,63.2,29.74,West,263,0.0,0.0,93,0.00,,,0.00,Wunderground v.1.15,2013-09-09 10:41:00,
2013-09-09 06:48:00,65.2,63.1,29.74,West,263,0.0,0.0,93,0.00,,,0.00,Wunderground v.1.15,2013-09-09 10:48:00,
2013-09-09 06:54:00,65.2,63.1,29.74,West,263,0.0,0.0,93,0.00,,,0.00,Wunderground v.1.15,2013-09-09 10:54:00,
2013-09-09 06:59:00,65.2,63.1,29.74,West,263,0.0,1.0,93,0.00,,,0.00,Wunderground v.1.15,2013-09-09 10:59:00,
2013-09-09 07:05:00,65.1,63.0,29.75,West,263,0.0,0.0,93,0.00,,,0.00,Wunderground v.1.15,2013-09-09 11:05:00,
2013-09-09 07:10:00,65.1,63.0,29.75,West,263,0.0,0.0,93,0.00,,,0.00,Wunderground v.1.15,2013-09-09 11:10:00,
2013-09-09 07:15:00,65.0,62.9,29.75,West,263,0.0,0.0,93,0.00,,,0.00,Wunderground v.1.15,2013-09-09 11:15:00,
2013-09-09 07:21:00,65.0,62.9,29.75,West,263,0.0,0.0,93,0.00,,,0.00,Wunderground v.1.15,2013-09-09 11:21:00,
2013-09-09 07:26:00,65.0,62.9,29.75,West,263,0.0,0.0,93,0.00,,,0.00,Wunderground v.1.15,2013-09-09 11:26:00,
2013-09-09 07:31:00,65.0,62.9,29.75,West,263,0.0,0.0,93,0.00,,,0.00,Wunderground v.1.15,2013-09-09 11:31:00,
2013-09-09 07:36:00,65.0,62.9,29.75,West,263,0.0,0.0,93,0.00,,,0.00,Wunderground v.1.15,2013-09-09 11:36:00,
2013-09-09 07:48:00,65.0,62.9,29.75,West,263,0.0,0.0,93,0.00,,,0.00,Wunderground v.1.15,2013-09-09 11:48:00,
2013-09-09 08:48:00,66.2,64.1,29.76,West,263,0.0,0.0,93,0.00,,,0.00,Wunderground v.1.15,2013-09-09 12:48:00,
2013-09-09 08:54:00,66.5,64.4,29.76,West,265,0.0,1.0,93,0.00,,,0.00,Wunderground v.1.15,2013-09-09 12:54:00,
2013-09-09 09:00:00,66.8,64.7,29.76,West,271,0.0,0.0,93,0.00,,,0.00,Wunderground v.1.15,2013-09-09 13:00:00,
2013-09-09 09:06:00,67.2,65.1,29.76,West,277,0.0,1.0,93,0.00,,,0.00,Wunderground v.1.15,2013-09-09 13:06:00,
2013-09-09 09:11:00,67.5,65.1,29.76,West,277,0.0,0.0,92,0.00,,,0.00,Wunderground v.1.15,2013-09-09 13:11:00,
2013-09-09 09:17:00,68.0,65.9,29.76,West,277,0.0,0.0,93,0.00,,,0.00,Wunderground v.1.15,2013-09-09 13:17:00,
2013-09-09 09:22:00,68.3,65.6,29.76,West,277,0.0,0.0,91,0.00,,,0.00,Wunderground v.1.15,2013-09-09 13:22:00,
2013-09-09 09:28:00,68.7,66.0,29.76,West,277,0.0,0.0,91,0.00,,,0.00,Wunderground v.1.15,2013-09-09 13:28:00,
2013-09-09 10:48:00,75.4,67.7,29.78,North,11,0.0,0.0,77,0.00,,,0.00,Wunderground v.1.15,2013-09-09 14:48:00,
2013-09-09 10:54:00,75.7,67.6,29.78,North,11,0.0,1.0,76,0.00,,,0.00,Wunderground v.1.15,2013-09-09 14:54:00,
2013-09-09 11:00:00,75.7,67.6,29.78,North,11,0.0,0.0,76,0.00,,,0.00,Wunderground v.1.15,2013-09-09 15:00:00,
2013-09-09 11:06:00,75.8,68.1,29.78,North,11,0.0,0.0,77,0.00,,,0.00,Wunderground v.1.15,2013-09-09 15:06:00,
2013-09-09 11:12:00,76.1,68.0,29.78,North,11,0.0,0.0,76,0.00,,,0.00,Wunderground v.1.15,2013-09-09 15:12:00,
2013-09-09 11:18:00,76.4,67.9,29.78,North,360,0.0,1.0,75,0.00,,,0.00,Wunderground v.1.15,2013-09-09 15:18:00,
2013-09-09 11:48:00,77.2,67.9,29.78,ESE,123,0.0,1.0,73,0.00,,,0.00,Wunderground v.1.15,2013-09-09 15:48:00,
2013-09-09 11:54:00,77.4,68.1,29.78,NNW,336,0.0,2.0,73,0.00,,,0.00,Wunderground v.1.15,2013-09-09 15:54:00,
2013-09-09 12:00:00,77.6,67.0,29.78,NNW,337,0.0,1.0,70,0.00,,,0.00,Wunderground v.1.15,2013-09-09 16:00:00,
2013-09-09 12:06:00,77.8,66.4,29.78,NNE,14,0.0,1.0,68,0.00,,,0.00,Wunderground v.1.15,2013-09-09 16:06:00,
2013-09-09 12:12:00,78.2,67.2,29.78,ENE,68,0.0,0.0,69,0.00,,,0.00,Wunderground v.1.15,2013-09-09 16:12:00,
2013-09-09 12:18:00,78.5,68.3,29.78,West,262,0.0,2.0,71,0.00,,,0.00,Wunderground v.1.15,2013-09-09 16:18:00,
2013-09-09 12:24:00,78.5,67.9,29.78,East,94,1.0,2.0,70,0.00,,,0.00,Wunderground v.1.15,2013-09-09 16:24:00,
2013-09-09 12:30:00,78.5,67.5,29.78,SE,146,1.0,1.0,69,0.00,,,0.00,Wunderground v.1.15,2013-09-09 16:30:00,
2013-09-09 12:48:00,79.4,67.0,29.78,ENE,63,1.0,1.0,66,0.00,,,0.00,Wunderground v.1.15,2013-09-09 16:48:00,
2013-09-09 12:54:00,79.6,67.2,29.78,NE,55,1.0,2.0,66,0.00,,,0.00,Wunderground v.1.15,2013-09-09 16:54:00,
2013-09-09 13:00:00,79.8,67.9,29.78,East,96,0.0,0.0,67,0.00,,,0.00,Wunderground v.1.15,2013-09-09 17:00:00,
2013-09-09 13:06:00,79.3,68.2,29.77,East,96,0.0,0.0,69,0.00,,,0.00,Wunderground v.1.15,2013-09-09 17:06:00,
2013-09-09 13:11:00,78.9,67.9,29.77,East,96,0.0,0.0,69,0.00,,,0.00,Wunderground v.1.15,2013-09-09 17:11:00,
2013-09-09 13:17:00,78.7,68.9,29.77,East,96,0.0,0.0,72,0.00,,,0.00,Wunderground v.1.15,2013-09-09 17:17:00,
2013-09-09 13:22:00,78.4,67.8,29.77,East,96,0.0,0.0,70,0.00,,,0.00,Wunderground v.1.15,2013-09-09 17:22:00,
2013-09-09 13:28:00,78.2,68.4,29.77,East,96,0.0,0.0,72,0.00,,,0.00,Wunderground v.1.15,2013-09-09 17:28:00,
2013-09-09 13:34:00,78.3,68.9,29.77,East,96,0.0,0.0,73,0.00,,,0.00,Wunderground v.1.15,2013-09-09 17:34:00,
2013-09-09 13:39:00,78.7,67.7,29.77,SSW,204,0.0,1.0,69,0.00,,,0.00,Wunderground v.1.15,2013-09-09 17:39:00,
2013-09-09 13:45:00,79.3,67.0,29.77,South,178,0.0,1.0,66,0.00,,,0.00,Wunderground v.1.15,2013-09-09 17:45:00,
2013-09-09 13:50:00,79.6,67.7,29.77,East,87,0.0,0.0,67,0.00,,,0.00,Wunderground v.1.15,2013-09-09 17:50:00,
2013-09-09 13:56:00,79.5,68.0,29.77,East,87,0.0,2.0,68,0.00,,,0.00,Wunderground v.1.15,2013-09-09 17:56:00,
2013-09-09 14:01:00,79.1,67.6,29.77,East,87,0.0,0.0,68,0.00,,,0.00,Wunderground v.1.15,2013-09-09 18:01:00,
2013-09-09 14:07:00,78.7,68.9,29.77,East,87,0.0,0.0,72,0.00,,,0.00,Wunderground v.1.15,2013-09-09 18:07:00,
2013-09-09 14:13:00,78.2,68.4,29.77,East,85,0.0,0.0,72,0.00,,,0.00,Wunderground v.1.15,2013-09-09 18:13:00,
2013-09-09 14:19:00,77.9,68.9,29.77,East,85,0.0,2.0,74,0.00,,,0.00,Wunderground v.1.15,2013-09-09 18:19:00,
2013-09-09 14:25:00,77.6,69.0,29.76,East,85,0.0,0.0,75,0.00,,,0.00,Wunderground v.1.15,2013-09-09 18:25:00,
2013-09-09 14:31:00,77.6,67.9,29.76,NE,38,0.0,0.0,72,0.00,,,0.00,Wunderground v.1.15,2013-09-09 18:31:00,
2013-09-09 14:37:00,78.0,67.8,29.76,NE,39,0.0,2.0,71,0.00,,,0.00,Wunderground v.1.15,2013-09-09 18:37:00,
2013-09-09 14:43:00,78.4,67.4,29.76,West,264,0.0,1.0,69,0.00,,,0.00,Wunderground v.1.15,2013-09-09 18:43:00,
2013-09-09 14:48:00,78.9,67.9,29.76,ENE,77,0.0,1.0,69,0.00,,,0.00,Wunderground v.1.15,2013-09-09 18:48:00,
2013-09-09 14:54:00,79.4,67.5,29.76,ENE,61,1.0,2.0,67,0.00,,,0.00,Wunderground v.1.15,2013-09-09 18:54:00,
2013-09-09 14:59:00,79.7,67.3,29.76,NNE,28,1.0,1.0,66,0.00,,,0.00,Wunderground v.1.15,2013-09-09 18:59:00,
2013-09-09 15:05:00,79.9,68.8,29.76,NE,37,0.0,1.0,69,0.00,,,0.00,Wunderground v.1.15,2013-09-09 19:05:00,
2013-09-09 15:11:00,79.9,68.4,29.75,ENE,73,0.0,1.0,68,0.00,,,0.00,Wunderground v.1.15,2013-09-09 19:11:00,
2013-09-09 15:17:00,80.0,68.1,29.76,ENE,61,1.0,2.0,67,0.00,,,0.00,Wunderground v.1.15,2013-09-09 19:17:00,
2013-09-09 15:22:00,79.9,67.1,29.75,NE,40,1.0,1.0,65,0.00,,,0.00,Wunderground v.1.15,2013-09-09 19:22:00,
2013-09-09 15:28:00,79.8,68.3,29.75,NNE,28,0.0,1.0,68,0.00,,,0.00,Wunderground v.1.15,2013-09-09 19:28:00,
2013-09-09 15:34:00,79.7,68.2,29.75,NNE,28,0.0,1.0,68,0.00,,,0.00,Wunderground v.1.15,2013-09-09 19:34:00,
2013-09-09 15:39:00,79.8,67.0,29.75,NW,321,0.0,1.0,65,0.00,,,0.00,Wunderground v.1.15,2013-09-09 19:39:00,
2013-09-09 15:44:00,79.9,67.1,29.75,West,270,0.0,0.0,65,0.00,,,0.00,Wunderground v.1.15,2013-09-09 19:44:00,
2013-09-09 15:50:00,79.8,67.4,29.75,WSW,252,0.0,0.0,66,0.00,,,0.00,Wunderground v.1.15,2013-09-09 19:50:00,
2013-09-09 15:56:00,79.4,68.3,29.75,WSW,252,0.0,2.0,69,0.00,,,0.00,Wunderground v.1.15,2013-09-09 19:56:00,
2013-09-09 16:01:00,79.0,68.4,29.75,West,273,0.0,1.0,70,0.00,,,0.00,Wunderground v.1.15,2013-09-09 20:01:00,
2013-09-09 16:07:00,78.6,68.0,29.75,NW,308,0.0,1.0,70,0.00,,,0.00,Wunderground v.1.15,2013-09-09 20:07:00,
2013-09-09 16:13:00,78.6,68.0,29.75,WNW,302,0.0,0.0,70,0.00,,,0.00,Wunderground v.1.15,2013-09-09 20:13:00,
2013-09-09 16:19:00,78.5,67.1,29.75,WNW,288,0.0,0.0,68,0.00,,,0.00,Wunderground v.1.15,2013-09-09 20:19:00,
2013-09-09 16:25:00,78.7,68.1,29.74,NW,314,0.0,1.0,70,0.00,,,0.00,Wunderground v.1.15,2013-09-09 20:25:00,
2013-09-09 16:30:00,79.0,69.2,29.74,ENE,70,0.0,0.0,72,0.00,,,0.00,Wunderground v.1.15,2013-09-09 20:30:00,
2013-09-09 16:36:00,78.9,67.9,29.74,ENE,70,0.0,0.0,69,0.00,,,0.00,Wunderground v.1.15,2013-09-09 20:36:00,
2013-09-09 16:42:00,79.1,69.7,29.74,NE,46,0.0,0.0,73,0.00,,,0.00,Wunderground v.1.15,2013-09-09 20:42:00,
2013-09-09 16:48:00,79.1,67.6,29.74,South,183,0.0,0.0,68,0.00,,,0.00,Wunderground v.1.15,2013-09-09 20:48:00,
2013-09-09 16:54:00,79.1,68.5,29.74,South,183,0.0,1.0,70,0.00,,,0.00,Wunderground v.1.15,2013-09-09 20:54:00,
2013-09-09 16:59:00,79.1,68.5,29.74,SE,130,0.0,0.0,70,0.00,,,0.00,Wunderground v.1.15,2013-09-09 20:59:00,
2013-09-09 17:04:00,79.0,68.4,29.74,SE,132,0.0,0.0,70,0.00,,,0.00,Wunderground v.1.15,2013-09-09 21:04:00,
2013-09-09 17:10:00,78.8,67.3,29.74,South,189,0.0,0.0,68,0.00,,,0.00,Wunderground v.1.15,2013-09-09 21:10:00,
2013-09-09 17:16:00,78.5,67.9,29.74,SW,219,0.0,0.0,70,0.00,,,0.00,Wunderground v.1.15,2013-09-09 21:16:00,
2013-09-09 17:22:00,78.4,68.2,29.74,SW,219,0.0,0.0,71,0.00,,,0.00,Wunderground v.1.15,2013-09-09 21:22:00,
2013-09-09 17:27:00,78.2,68.8,29.74,SW,219,0.0,0.0,73,0.00,,,0.00,Wunderground v.1.15,2013-09-09 21:27:00,
2013-09-09 17:32:00,78.0,67.4,29.74,SW,219,0.0,0.0,70,0.00,,,0.00,Wunderground v.1.15,2013-09-09 21:32:00,
2013-09-09 17:38:00,78.0,67.8,29.73,SW,219,0.0,0.0,71,0.00,,,0.00,Wunderground v.1.15,2013-09-09 21:38:00,
2013-09-09 17:44:00,77.7,68.0,29.73,West,268,0.0,1.0,72,0.00,,,0.00,Wunderground v.1.15,2013-09-09 21:44:00,
2013-09-09 18:48:00,75.1,68.9,29.74,NW,315,0.0,0.0,81,0.00,,,0.00,Wunderground v.1.15,2013-09-09 22:48:00,
2013-09-09 18:54:00,74.6,68.7,29.74,NW,316,0.0,0.0,82,0.00,,,0.00,Wunderground v.1.15,2013-09-09 22:54:00,
2013-09-09 19:00:00,74.1,68.6,29.74,NW,316,0.0,0.0,83,0.00,,,0.00,Wunderground v.1.15,2013-09-09 23:00:00,
2013-09-09 19:06:00,73.6,68.5,29.74,NW,316,0.0,0.0,84,0.00,,,0.00,Wunderground v.1.15,2013-09-09 23:06:00,
2013-09-09 19:12:00,73.3,68.2,29.74,NW,316,0.0,0.0,84,0.00,,,0.00,Wunderground v.1.15,2013-09-09 23:12:00,
2013-09-09 19:18:00,73.0,68.2,29.74,NW,316,0.0,0.0,85,0.00,,,0.00,Wunderground v.1.15,2013-09-09 23:18:00,
2013-09-09 19:23:00,72.8,68.0,29.75,NW,316,0.0,0.0,85,0.00,,,0.00,Wunderground v.1.15,2013-09-09 23:23:00,
2013-09-09 19:29:00,72.5,67.7,29.75,NW,316,0.0,0.0,85,0.00,,,0.00,Wunderground v.1.15,2013-09-09 23:29:00,
2013-09-09 19:34:00,72.3,67.5,29.75,NW,316,0.0,0.0,85,0.00,,,0.00,Wunderground v.1.15,2013-09-09 23:34:00,
2013-09-09 19:40:00,72.0,67.6,29.75,NW,316,0.0,0.0,86,0.00,,,0.00,Wunderground v.1.15,2013-09-09 23:40:00,
2013-09-09 19:48:00,71.7,67.3,29.76,NW,316,0.0,0.0,86,0.00,,,0.00,Wunderground v.1.15,2013-09-09 23:48:00,
2013-09-09 19:54:00,71.5,67.4,29.76,NW,315,0.0,0.0,87,0.00,,,0.00,Wunderground v.1.15,2013-09-09 23:54:00,
2013-09-09 19:59:00,71.3,67.2,29.76,NW,316,0.0,0.0,87,0.00,,,0.00,Wunderground v.1.15,2013-09-09 23:59:00,
2013-09-09 20:04:00,71.1,67.0,29.77,NW,316,0.0,0.0,87,0.00,,,0.00,Wunderground v.1.15,2013-09-10 00:04:00,
2013-09-09 20:10:00,71.0,67.3,29.77,NW,316,0.0,0.0,88,0.00,,,0.00,Wunderground v.1.15,2013-09-10 00:10:00,
2013-09-09 20:15:00,70.8,67.1,29.77,NW,316,0.0,0.0,88,0.00,,,0.00,Wunderground v.1.15,2013-09-10 00:15:00,
2013-09-09 20:21:00,70.7,67.0,29.78,NW,316,0.0,0.0,88,0.00,,,0.00,Wunderground v.1.15,2013-09-10 00:21:00,
2013-09-09 20:26:00,70.6,66.9,29.77,NW,316,0.0,0.0,88,0.00,,,0.00,Wunderground v.1.15,2013-09-10 00:26:00,
2013-09-09 20:32:00,70.4,66.7,29.77,NW,316,0.0,0.0,88,0.00,,,0.00,Wunderground v.1.15,2013-09-10 00:32:00,
2013-09-09 20:38:00,70.3,66.9,29.78,NW,316,0.0,0.0,89,0.00,,,0.00,Wunderground v.1.15,2013-09-10 00:38:00,
2013-09-09 20:44:00,70.2,66.8,29.78,NW,316,0.0,0.0,89,0.00,,,0.00,Wunderground v.1.15,2013-09-10 00:44:00,
2013-09-09 20:49:00,70.1,66.7,29.78,NW,316,0.0,0.0,89,0.00,,,0.00,Wunderground v.1.15,2013-09-10 00:49:00,
2013-09-09 20:54:00,70.0,66.6,29.78,NW,316,0.0,0.0,89,0.00,,,0.00,Wunderground v.1.15,2013-09-10 00:54:00,
2013-09-09 21:00:00,69.9,66.5,29.78,NW,316,0.0,0.0,89,0.00,,,0.00,Wunderground v.1.15,2013-09-10 01:00:00,
2013-09-09 21:06:00,69.7,66.3,29.78,NW,316,0.0,0.0,89,0.00,,,0.00,Wunderground v.1.15,2013-09-10 01:06:00,
2013-09-09 21:12:00,69.6,66.2,29.79,NW,316,0.0,0.0,89,0.00,,,0.00,Wunderground v.1.15,2013-09-10 01:12:00,